Location: Clanezzo
(45.7500°N, 9.6000°E)
Time: 18:37:51
(UTC+00:00)

AO-7 - Visible Passes

Search period start: 29 June 2022 00:00
Search period end: 09 July 2022 00:00
Orbit: 1439 x 1459 km, 101.9° (Epoch: 28 June)

Date Brightness Start Highest point End Pass type
(mag) Time Alt. Az. Time Alt. Az. Time Alt. Az.
29 Jun ? 02:01:20 10° NE 02:05:25 14° E 02:09:28 10° ESE visible
30 Jun ? 02:51:58 10° NE 02:59:14 32° E 03:06:28 10° SSE visible
01 Jul ? 01:55:03 10° ENE 01:58:12 12° E 02:01:20 10° ESE visible
02 Jul ? 02:45:05 10° NE 02:52:06 29° E 02:59:05 10° SSE visible
03 Jul ? 01:49:19 10° ENE 01:50:58 11° E 01:52:37 10° E visible
04 Jul ? 02:38:13 10° NE 02:44:57 26° E 02:51:38 10° SSE visible
06 Jul ? 02:31:23 10° NE 02:37:48 24° E 02:44:09 10° SE visible
08 Jul ? 02:24:36 10° NE 02:30:37 21° E 02:36:36 10° SE visible
